sat.trackr.live / text

‹ back to catalog

STARLINK-37303

NORAD 68709 · 2026-081L

PAYLOAD ACTIVE UNKNOWN

§ Identity

Operator
Country
US
Launch date
2026-04-14
Launch site
AFETR
Launch vehicle
Mass (kg)
RCS (m²)

Purposes: comms

External: N2YO · Heavens-Above · Gunter

§ Orbital elements

Epoch: 2026-09-19T13:36:18.737856Z

Period
93.85 min
Inclination
53.1575°
Eccentricity
0.0001304
Mean motion
15.34398134 rev/d
Perigee alt
461.8 km
Apogee alt
463.6 km
Semi-major
6,840.8 km
B*
3.5567e-4
RAAN
210.1955°
Arg perigee
85.1147°
Mean anomaly
275.0004°
Rev number
2,447

§ Raw data

STARLINK-373031 68709U 26081L   26262.56688354  .00011659  00000+0  35567-3 0  99902 68709  53.1575 210.1955 0001304  85.1147 275.0004 15.34398134 24471

JSON: /api/v1/satellites/68709 · /tle

For live sub-satellite position, see the globe view (requires WebGL).

§ Visibility from observer

Set your observer location to see the next 7 days of passes ≥ 10°. The values pass through the URL so the page stays shareable.

No JS? Fill the form by hand. The geolocation button needs JavaScript.